Weather in Wayikkal

Sri Lanka     7°12′28″N   79°51′00″E
temp.,
°C
wind,
m/s
gust,
m/s
humid.,
%
clouds,
%
prec.,
mm/h
press.,
hPa
HPBL,
m
6 december, mon
mon623:30+27ene11765 2.6 101158
02:30+27ene22784 1.2 1010216
05:30+26e338212 1.9 1010205
08:30+26ene328194 0.1 1012255
11:30+27wnw3277100 0.1 1011260
14:30+28wnw337393 0.1 1008344
17:30+28wnw126994 0.6 1009321
20:30+29w1167100 0.1 1011449
7 december, tue
tue723:30+28nne2373100 0.1 1011386
02:30+27ne44816 1.6 1009259
05:30+26ne55826 2.5 1010328
08:30+26ne567824 0.0 1012363
11:30+29n456125 0.0 1011750
14:30+29nnw776993 0.0 1008500
17:30+29nnw897330 0.0 1009513
20:30+29n6774100 0.0 1011723
8 december, wed
wed823:30+27ene557772 0.0 1011311
02:30+26e4485100 0.0 1009337
05:30+26ene4382100 0.0 1010303
08:30+26ne44795 0.0 1013276
11:30+27nnw33739 0.0 1011415
14:30+28nw77745 0.0 1008524
17:30+28nnw77735 0.3 1009726
20:30+28nne787635 0.9 1011641
9 december, thu
thu923:30+27ne7108281 1.2 1011558
02:30+26ne568539 0.0 1010370
05:30+26e338592 0.0 1010260
08:30+26se2382100 0.0 1012285
11:30+27w22806 0.0 1012268
14:30+28wsw44745 0.1 1009442
17:30+28w337399 0.6 1010362
20:30+29nw447296 1.4 1012493
10 december, fri
fri1023:30+28n557073 1.6 1012774
02:30+26ne33805 0.0 1010260
05:30+25e448110 0.0 1010266
08:30+26ene337837 0.0 1013242
11:30+27nw126977 0.0 1011243
14:30+29n357025 0.4 1008530
17:30+30ne476974 2.1 1008261
20:30+28ne81074100 0.1 1011588